When you browse on this site, cookies collect data to enhance your experience and personalize the content and advertising you see.
Visit our Privacy Policy to learn more. By continuing to use the site, you agree to this use of cookies and data.
  • In Österreich
  • Länderverzeichnis
  • Für 7 Tage
  • Wassertemperatur
  • Satellitenkarten
  • Wetterkarte
  • News
  • Widgets
  • user-avatar
    Anmelden

    Stündliche Wetter Snopovo

    Heute, 21 November, Mittwoch

    Zeit Temperatur Niederschläge Wind Luftdruck Luftfeuchtigkeit
    00:00 -6°C° 0 mm 2 m/S 760 mmHg 91%
    01:00 -6°C° 0 mm 2 m/S 760 mmHg 93%
    02:00 -2°C° 0 mm 1 m/S 760 mmHg 94%
    03:00 -2°C° 0 mm 1 m/S 760 mmHg 94%
    04:00 -2°C° 0 mm 1 m/S 760 mmHg 94%
    05:00 -2°C° 0 mm 1 m/S 760 mmHg 94%
    06:00 -2°C° 0 mm 1 m/S 760 mmHg 94%
    07:00 -4°C° 0 mm 2 m/S 760 mmHg 94%
    08:00 -4°C° 0 mm 2 m/S 760 mmHg 95%
    09:00 -3°C° 0 mm 2 m/S 760 mmHg 92%
    10:00 -3°C° 0 mm 2 m/S 760 mmHg 90%
    11:00 -2°C° 0 mm 2 m/S 761 mmHg 88%
    12:00 -2°C° 0 mm 2 m/S 760 mmHg 87%
    13:00 -2°C° 0 mm 2 m/S 760 mmHg 87%
    14:00 -2°C° 0 mm 2 m/S 760 mmHg 86%
    15:00 -2°C° 0 mm 2 m/S 760 mmHg 88%
    16:00 -2°C° 0 mm 2 m/S 760 mmHg 90%
    17:00 -3°C° 0 mm 2 m/S 760 mmHg 91%
    18:00 -3°C° 0 mm 2 m/S 760 mmHg 92%
    19:00 -4°C° 0 mm 2 m/S 759 mmHg 93%
    20:00 -4°C° 0 mm 2 m/S 759 mmHg 94%
    21:00 -4°C° 0 mm 2 m/S 759 mmHg 95%
    22:00 -5°C° 0 mm 2 m/S 759 mmHg 95%
    23:00 -5°C° 0 mm 2 m/S 759 mmHg 95%

    Morgen, 22 November, Donnerstag

    Zeit Temperatur Niederschläge Wind Luftdruck Luftfeuchtigkeit
    00:00 -5°C° 0 mm 2 m/S 758 mmHg 95%
    01:00 -5°C° 0 mm 2 m/S 758 mmHg 95%
    02:00 -5°C° 0 mm 2 m/S 758 mmHg 95%
    03:00 -6°C° 0 mm 3 m/S 757 mmHg 95%
    04:00 -5°C° 0 mm 3 m/S 757 mmHg 94%
    05:00 -5°C° 0 mm 3 m/S 757 mmHg 94%
    06:00 -5°C° 0 mm 3 m/S 756 mmHg 93%
    07:00 -5°C° 0 mm 3 m/S 756 mmHg 92%
    08:00 -5°C° 0 mm 4 m/S 755 mmHg 92%
    09:00 -4°C° 0 mm 4 m/S 755 mmHg 89%
    10:00 -4°C° 0 mm 4 m/S 755 mmHg 87%
    11:00 -3°C° 0 mm 4 m/S 755 mmHg 84%
    12:00 -3°C° 0 mm 4 m/S 755 mmHg 84%
    13:00 -2°C° 0 mm 4 m/S 754 mmHg 84%
    14:00 -2°C° 0 mm 4 m/S 754 mmHg 83%
    15:00 -2°C° 0 mm 4 m/S 754 mmHg 84%
    16:00 -2°C° 0 mm 4 m/S 754 mmHg 85%
    17:00 -2°C° 0 mm 4 m/S 754 mmHg 86%
    18:00 -2°C° 0 mm 4 m/S 754 mmHg 87%
    19:00 -2°C° 0 mm 4 m/S 754 mmHg 88%
    20:00 -1°C° 0 mm 3 m/S 755 mmHg 89%
    21:00 -1°C° 0 mm 3 m/S 755 mmHg 90%
    22:00 -1°C° 0 mm 3 m/S 755 mmHg 91%
    23:00 -1°C° 0 mm 3 m/S 755 mmHg 92%

    übermorgen, 23 November, Freitag

    Zeit Temperatur Niederschläge Wind Luftdruck Luftfeuchtigkeit
    00:00 -1°C° 0 mm 2 m/S 756 mmHg 93%
    01:00 -1°C° 0 mm 2 m/S 756 mmHg 94%
    02:00 -2°C° 0 mm 2 m/S 756 mmHg 95%
    03:00 -2°C° 0 mm 2 m/S 757 mmHg 95%
    04:00 0°C° 0 mm 1 m/S 757 mmHg 96%
    05:00 0°C° 0 mm 1 m/S 757 mmHg 96%
    06:00 -1°C° 0 mm 1 m/S 758 mmHg 96%
    07:00 -1°C° 0 mm 1 m/S 758 mmHg 96%
    08:00 -1°C° 0 mm 1 m/S 758 mmHg 96%
    09:00 0°C° 0 mm 1 m/S 758 mmHg 94%
    10:00 -2°C° 0 mm 2 m/S 758 mmHg 92%
    11:00 -1°C° 0 mm 2 m/S 758 mmHg 90%
    12:00 -1°C° 0 mm 2 m/S 758 mmHg 89%
    13:00 -1°C° 0 mm 2 m/S 758 mmHg 89%
    14:00 -1°C° 0 mm 2 m/S 758 mmHg 88%
    15:00 -1°C° 0 mm 3 m/S 758 mmHg 88%
    16:00 -1°C° 0 mm 3 m/S 757 mmHg 87%
    17:00 -1°C° 0 mm 3 m/S 757 mmHg 87%
    18:00 -1°C° 0 mm 3 m/S 757 mmHg 88%
    19:00 -1°C° 0 mm 3 m/S 756 mmHg 88%
    20:00 -1°C° 0 mm 3 m/S 756 mmHg 88%
    21:00 -2°C° 0 mm 4 m/S 755 mmHg 87%
    22:00 -3°C° 0 mm 4 m/S 755 mmHg 86%
    23:00 -3°C° 0 mm 4 m/S 754 mmHg 85%

    24 November, Samstag

    Zeit Temperatur Niederschläge Wind Luftdruck Luftfeuchtigkeit
    00:00 -3°C° 0 mm 4 m/S 754 mmHg 85%
    01:00 -3°C° 0 mm 4 m/S 754 mmHg 85%
    02:00 -3°C° 0 mm 4 m/S 753 mmHg 85%
    03:00 -3°C° 0 mm 4 m/S 753 mmHg 86%
    04:00 -4°C° 0 mm 4 m/S 752 mmHg 87%
    05:00 -4°C° 0 mm 4 m/S 752 mmHg 88%
    06:00 -5°C° 0 mm 4 m/S 751 mmHg 88%
    07:00 -5°C° 0 mm 3 m/S 751 mmHg 89%
    08:00 -5°C° 0 mm 3 m/S 750 mmHg 89%
    09:00 -5°C° 0 mm 3 m/S 750 mmHg 88%
    10:00 -5°C° 0 mm 3 m/S 750 mmHg 86%
    11:00 -4°C° 0 mm 3 m/S 749 mmHg 84%
    12:00 -4°C° 0 mm 3 m/S 749 mmHg 84%
    13:00 -4°C° 0 mm 3 m/S 749 mmHg 83%
    14:00 -2°C° 0 mm 3 m/S 749 mmHg 83%
    15:00 -2°C° 0.1 mm 3 m/S 749 mmHg 85%
    16:00 -4°C° 0.1 mm 3 m/S 749 mmHg 88%
    17:00 -3°C° 0.1 mm 2 m/S 748 mmHg 91%
    18:00 -3°C° 0.1 mm 2 m/S 749 mmHg 91%
    19:00 -3°C° 0.1 mm 2 m/S 749 mmHg 92%
    20:00 -2°C° 0.1 mm 2 m/S 749 mmHg 92%
    21:00 -3°C° 0 mm 2 m/S 749 mmHg 93%
    22:00 -1°C° 0 mm 1 m/S 749 mmHg 95%
    23:00 -1°C° 0 mm 1 m/S 750 mmHg 96%

    25 November, Sonntag

    Zeit Temperatur Niederschläge Wind Luftdruck Luftfeuchtigkeit
    00:00 -1°C° 0 mm 1 m/S 750 mmHg 96%
    01:00 -1°C° 0 mm 1 m/S 750 mmHg 96%
    02:00 -2°C° 0 mm 0 m/S 750 mmHg 96%
    03:00 -2°C° 0 mm 0 m/S 750 mmHg 96%
    04:00 -2°C° 0 mm 0 m/S 750 mmHg 96%
    05:00 -2°C° 0 mm 0 m/S 750 mmHg 95%
    06:00 -2°C° 0 mm 0 m/S 750 mmHg 95%
    07:00 -2°C° 0 mm 0 m/S 750 mmHg 94%
    08:00 -2°C° 0 mm 0 m/S 750 mmHg 93%
    09:00 -2°C° 0 mm 0 m/S 750 mmHg 90%
    10:00 0°C° 0 mm 1 m/S 750 mmHg 88%
    11:00 0°C° 0 mm 1 m/S 750 mmHg 85%
    12:00 0°C° 0 mm 1 m/S 749 mmHg 84%
    13:00 0°C° 0 mm 1 m/S 749 mmHg 84%
    14:00 0°C° 0 mm 1 m/S 749 mmHg 83%
    15:00 -1°C° 0 mm 1 m/S 749 mmHg 86%
    16:00 -2°C° 0 mm 1 m/S 749 mmHg 88%
    17:00 -3°C° 0 mm 1 m/S 749 mmHg 91%
    18:00 -5°C° 0 mm 2 m/S 749 mmHg 91%
    19:00 -5°C° 0 mm 2 m/S 749 mmHg 91%
    20:00 -5°C° 0 mm 2 m/S 749 mmHg 91%
    21:00 -5°C° 0 mm 2 m/S 749 mmHg 88%
    22:00 -5°C° 0 mm 2 m/S 749 mmHg 85%
    23:00 -5°C° 0 mm 2 m/S 749 mmHg 82%

    26 November, Montag

    Zeit Temperatur Niederschläge Wind Luftdruck Luftfeuchtigkeit
    00:00 -5°C° 0 mm 2 m/S 749 mmHg 84%
    01:00 -5°C° 0 mm 2 m/S 749 mmHg 85%
    02:00 -5°C° 0 mm 2 m/S 749 mmHg 87%
    03:00 -6°C° 0 mm 3 m/S 749 mmHg 86%
    04:00 -6°C° 0 mm 3 m/S 749 mmHg 85%
    05:00 -6°C° 0 mm 3 m/S 749 mmHg 85%
    06:00 -6°C° 0 mm 3 m/S 749 mmHg 85%
    07:00 -6°C° 0 mm 2 m/S 750 mmHg 85%
    08:00 -6°C° 0 mm 2 m/S 750 mmHg 84%
    09:00 -6°C° 0 mm 2 m/S 750 mmHg 82%
    10:00 -5°C° 0 mm 2 m/S 750 mmHg 79%
    11:00 -5°C° 0 mm 2 m/S 750 mmHg 76%
    12:00 -5°C° 0 mm 2 m/S 750 mmHg 77%
    13:00 -4°C° 0 mm 2 m/S 750 mmHg 78%
    14:00 -4°C° 0 mm 2 m/S 750 mmHg 79%
    15:00 -5°C° 0 mm 2 m/S 751 mmHg 84%
    16:00 -6°C° 0 mm 2 m/S 751 mmHg 88%
    17:00 -4°C° 0 mm 1 m/S 751 mmHg 92%
    18:00 -6°C° 0 mm 2 m/S 751 mmHg 93%
    19:00 -6°C° 0 mm 2 m/S 751 mmHg 94%
    20:00 -6°C° 0 mm 2 m/S 750 mmHg 94%
    21:00 -6°C° 0 mm 2 m/S 750 mmHg 94%
    22:00 -5°C° 0 mm 2 m/S 751 mmHg 94%
    23:00 -5°C° 0 mm 2 m/S 751 mmHg 94%
    Mehr zeigen